STARLINK-5153, 54088

Orbit data source: Space-Track

STARLINK-5153, 54088 is a payload satellite owned by SpaceX/Seattle (US) in LEO that was launched on Thu, 20 Oct 2022 UTC via an FALCON 9 launch vehicle from the Air Force Eastern Test Range (AFETR). Payload-class satellites include a variety of spacecraft equipped with specific instruments for various scientific and technological missions. These include communications satellites like Starlink; space stations such as the ISS; scientific satellites like the Hubble; Earth observation satellites from companies like Planet Labs, Umbra, and HawkEye 360; GPS; miniature CubeSats for education and research; and military/defense satellites.

Loading next visibility...
Identifier
54088, 2022-136AP
Orbit
LEO
Country
Flag of USUS
Related business
Manufacturer
SpaceX/Seattle
Mission
Operational Commercial Communications
Bus & Motor
STARLINK, Unknown motor
Mass
305 kg wet, ~290 kg dry
Launch date (UTC)
2022-10-20 (3 years ago)
Launch vehicle
FALCON 9
Launch site
Air Force Eastern Test Range (AFETR)
Object type
Payload
Rocket body
Debris
Shape & HBR
Box + 1 Pan, 10.1 m
Radar Cross Section
13.562 m², Large (>1 m²)

Expand to show TLE details & history
Last TLE update: 19 hours ago

TLE from 19 hours ago
0 STARLINK-5153
1 54088U 22136AP  25347.31970434  .00000507  00000-0  49968-4 0  9993
2 54088  53.2190   1.9549 0001462  93.0249 267.0911 15.08841454173945
Epoch: 2025-12-13T07:40Z
TLE epoch observation values (Epoch: 2025-12-13T07:40:22.454Z)
Latitude
-0.00001°
Longitude
164.61266°
Altitude
540.688 km
Speed
7.593 km/s
True Right ascension
00h 07m 49s
True Declination
0° 00' 00"
Sunlit
Object was in daylight at epoch
Visualization orbit readout
Latitude
Unknown
Longitude
Unknown
Altitude
Unknown
Speed
Unknown
Apparent Right ascension
Unknown
Apparent Declination
Unknown
Sunlit
N/A
Visualization observer readout
Local Sidereal Time
01:32:46
Azimuth
Unknown
Elevation
Unknown
Doppler factor
Unknown
Orbital elements
Apogee altitude
540.995 km
Perigee altitude
538.972 km
Semi-major axis
6,918.121 km
Eccentricity
0.00015
Inclination
53.219°
RAAN
1.9549°
Arg. of periapsis
93.0249°
True anomaly
267.07437°
Mean anomaly
267.0911°
Eccentric anomaly
267.08273°
Mean motion
3.77191 °/min
Orbital period
95.44 mins
BSTAR
0.000049968
Loading maneuver chart data...
Computing Atmospheric mass density...
Loading historical data...
Loading historical data...
Loading historical data...
Loading historical data...
Loading historical data...
Loading historical data...
Loading historical data...

Documentation

Showing up to 5 results
|